Year,Month,Day,Hour,Minute,Value (Times are PST for windspeed in km/hr)
2012,01,25,00,00,9.90
2012,01,25,00,01,20.10
2012,01,25,00,02,15.20
2012,01,25,00,03,16.10
2012,01,25,00,04,22.30
2012,01,25,00,05,12.50
2012,01,25,00,06,12.30
2012,01,25,00,07,15.50
2012,01,25,00,08,12.80
2012,01,25,00,09,15.60
2012,01,25,00,10,18.70
2012,01,25,00,11,19.20
2012,01,25,00,12,25.50
2012,01,25,00,13,17.60
2012,01,25,00,14,18.50
2012,01,25,00,15,17.60
2012,01,25,00,16,11.90
2012,01,25,00,17,6.10
2012,01,25,00,18,9.70
2012,01,25,00,19,5.30
2012,01,25,00,20,9.40
2012,01,25,00,21,13.50
2012,01,25,00,22,27.40
2012,01,25,00,23,23.70
2012,01,25,00,24,24.80
2012,01,25,00,25,19.80
2012,01,25,00,26,23.10
2012,01,25,00,27,29.20
2012,01,25,00,28,25.50
2012,01,25,00,29,22.90
2012,01,25,00,30,16.30
2012,01,25,00,31,24.00
2012,01,25,00,32,25.20
2012,01,25,00,33,9.90
2012,01,25,00,34,12.50
2012,01,25,00,35,17.30
2012,01,25,00,36,16.70
2012,01,25,00,37,7.20
2012,01,25,00,38,12.00
2012,01,25,00,39,10.50
2012,01,25,00,40,23.50
2012,01,25,00,41,18.90
2012,01,25,00,42,11.10
2012,01,25,00,43,11.00
2012,01,25,00,44,22.80
2012,01,25,00,45,22.10
2012,01,25,00,46,25.30
2012,01,25,00,47,26.80
2012,01,25,00,48,14.30
2012,01,25,00,49,10.10
2012,01,25,00,50,21.00
2012,01,25,00,51,12.20
2012,01,25,00,52,19.20
2012,01,25,00,53,8.50
2012,01,25,00,54,16.00
2012,01,25,00,55,32.50
2012,01,25,00,56,18.30
2012,01,25,00,57,16.00
2012,01,25,00,58,10.90
2012,01,25,00,59,9.60
2012,01,25,01,00,17.50
2012,01,25,01,01,16.90
2012,01,25,01,02,11.30
2012,01,25,01,03,16.50
2012,01,25,01,04,11.40
2012,01,25,01,05,7.00
2012,01,25,01,06,8.20
2012,01,25,01,07,9.60
2012,01,25,01,08,8.70
2012,01,25,01,09,15.10
2012,01,25,01,10,11.40
2012,01,25,01,11,13.50
2012,01,25,01,12,6.30
2012,01,25,01,13,15.20
2012,01,25,01,14,8.40
2012,01,25,01,15,3.00
2012,01,25,01,16,2.70
2012,01,25,01,17,15.20
2012,01,25,01,18,13.90
2012,01,25,01,19,13.80
2012,01,25,01,20,5.40
2012,01,25,01,21,16.80
2012,01,25,01,22,15.00
2012,01,25,01,23,9.10
2012,01,25,01,24,14.20
2012,01,25,01,25,18.10
2012,01,25,01,26,24.00
2012,01,25,01,27,14.60
2012,01,25,01,28,19.00
2012,01,25,01,29,25.70
2012,01,25,01,30,24.20
2012,01,25,01,31,27.00
2012,01,25,01,32,20.70
2012,01,25,01,33,17.10
2012,01,25,01,34,10.30
2012,01,25,01,35,15.30
2012,01,25,01,36,16.20
2012,01,25,01,37,13.30
2012,01,25,01,38,24.10
2012,01,25,01,39,16.40
2012,01,25,01,40,8.90
2012,01,25,01,41,16.50
2012,01,25,01,42,19.30
2012,01,25,01,43,12.80
2012,01,25,01,44,8.80
2012,01,25,01,45,7.70
2012,01,25,01,46,17.40
2012,01,25,01,47,9.70
2012,01,25,01,48,23.90
2012,01,25,01,49,17.90
2012,01,25,01,50,20.30
2012,01,25,01,51,10.70
2012,01,25,01,52,11.80
2012,01,25,01,53,6.00
2012,01,25,01,54,12.00
2012,01,25,01,55,7.90
2012,01,25,01,56,15.50
2012,01,25,01,57,22.10
2012,01,25,01,58,11.50
2012,01,25,01,59,9.90
2012,01,25,02,00,8.80
2012,01,25,02,01,20.50
2012,01,25,02,02,27.60
2012,01,25,02,03,21.10
2012,01,25,02,04,14.80
2012,01,25,02,05,17.00
2012,01,25,02,06,11.60
2012,01,25,02,07,10.50
2012,01,25,02,08,21.60
2012,01,25,02,09,11.20
2012,01,25,02,10,9.20
2012,01,25,02,11,12.10
2012,01,25,02,12,20.50
2012,01,25,02,13,12.80
2012,01,25,02,14,7.20
2012,01,25,02,15,9.30
2012,01,25,02,16,13.30
2012,01,25,02,17,8.30
2012,01,25,02,18,19.40
2012,01,25,02,19,12.80
2012,01,25,02,20,15.90
2012,01,25,02,21,11.60
2012,01,25,02,22,18.10
2012,01,25,02,23,16.20
2012,01,25,02,24,12.60
2012,01,25,02,25,10.70
2012,01,25,02,26,15.00
2012,01,25,02,27,11.30
2012,01,25,02,28,10.30
2012,01,25,02,29,2.30
2012,01,25,02,30,15.00
2012,01,25,02,31,20.50
2012,01,25,02,32,20.80
2012,01,25,02,33,10.20
2012,01,25,02,34,7.20
2012,01,25,02,35,9.60
2012,01,25,02,36,14.00
2012,01,25,02,37,20.40
2012,01,25,02,38,19.30
2012,01,25,02,39,12.40
2012,01,25,02,40,8.20
2012,01,25,02,41,11.30
2012,01,25,02,42,15.70
2012,01,25,02,43,20.00
2012,01,25,02,44,12.00
2012,01,25,02,45,21.60
2012,01,25,02,46,18.50
2012,01,25,02,47,11.90
2012,01,25,02,48,6.40
2012,01,25,02,49,15.50
2012,01,25,02,50,22.10
2012,01,25,02,51,18.80
2012,01,25,02,52,22.00
2012,01,25,02,53,19.60
2012,01,25,02,54,29.50
2012,01,25,02,55,23.80
2012,01,25,02,56,26.50
2012,01,25,02,57,19.20
2012,01,25,02,58,20.60
2012,01,25,02,59,19.80
2012,01,25,03,00,15.40
2012,01,25,03,01,16.80
2012,01,25,03,02,13.00
2012,01,25,03,03,13.80
2012,01,25,03,04,18.90
2012,01,25,03,05,17.40
2012,01,25,03,06,14.20
2012,01,25,03,07,7.50
2012,01,25,03,08,14.30
2012,01,25,03,09,14.60
2012,01,25,03,10,8.90
2012,01,25,03,11,10.60
2012,01,25,03,12,4.80
2012,01,25,03,13,1.10
2012,01,25,03,14,6.40
2012,01,25,03,15,4.90
2012,01,25,03,16,8.80
2012,01,25,03,17,13.40
2012,01,25,03,18,14.20
2012,01,25,03,19,6.40
2012,01,25,03,20,6.00
2012,01,25,03,21,5.20
2012,01,25,03,22,1.80
2012,01,25,03,23,4.80
2012,01,25,03,24,9.50
2012,01,25,03,25,15.80
2012,01,25,03,26,13.80
2012,01,25,03,27,7.10
2012,01,25,03,28,9.70
2012,01,25,03,29,7.80
2012,01,25,03,30,4.30
2012,01,25,03,31,6.00
2012,01,25,03,32,4.30
2012,01,25,03,33,2.20
2012,01,25,03,34,0.00
2012,01,25,03,35,0.50
2012,01,25,03,36,3.00
2012,01,25,03,37,6.30
2012,01,25,03,38,9.60
2012,01,25,03,39,4.70
2012,01,25,03,40,0.80
2012,01,25,03,41,0.00
2012,01,25,03,42,0.20
2012,01,25,03,43,3.40
2012,01,25,03,44,3.30
2012,01,25,03,45,3.00
2012,01,25,03,46,4.10
2012,01,25,03,47,0.30
2012,01,25,03,48,2.60
2012,01,25,03,49,0.30
2012,01,25,03,50,1.40
2012,01,25,03,51,1.70
2012,01,25,03,52,2.20
2012,01,25,03,53,0.60
2012,01,25,03,54,2.60
2012,01,25,03,55,0.30
2012,01,25,03,56,1.30
2012,01,25,03,57,2.80
2012,01,25,03,58,2.40
2012,01,25,03,59,3.20
2012,01,25,04,00,1.70
2012,01,25,04,01,4.30
2012,01,25,04,02,5.00
2012,01,25,04,03,7.40
2012,01,25,04,04,5.80
2012,01,25,04,05,6.00
2012,01,25,04,06,6.30
2012,01,25,04,07,7.00
2012,01,25,04,08,6.30
2012,01,25,04,09,4.80
2012,01,25,04,10,3.10
2012,01,25,04,11,4.40
2012,01,25,04,12,3.10
2012,01,25,04,13,0.60
2012,01,25,04,14,0.10
2012,01,25,04,15,0.00
2012,01,25,04,16,0.20
2012,01,25,04,17,1.80
2012,01,25,04,18,3.70
2012,01,25,04,19,0.10
2012,01,25,04,20,0.00
2012,01,25,04,21,3.00
2012,01,25,04,22,4.00
2012,01,25,04,23,1.00
2012,01,25,04,24,0.60
2012,01,25,04,25,3.60
2012,01,25,04,26,3.50
2012,01,25,04,27,1.30
2012,01,25,04,28,0.30
2012,01,25,04,29,1.30
2012,01,25,04,30,0.70
2012,01,25,04,31,2.20
2012,01,25,04,32,2.70
2012,01,25,04,33,0.20
2012,01,25,04,34,0.00
2012,01,25,04,35,0.20
2012,01,25,04,36,2.20
2012,01,25,04,37,0.10
2012,01,25,04,38,0.00
2012,01,25,04,39,0.00
2012,01,25,04,40,0.00
2012,01,25,04,41,3.10
2012,01,25,04,42,5.20
2012,01,25,04,43,4.40
2012,01,25,04,44,6.90
2012,01,25,04,45,5.50
2012,01,25,04,46,0.60
2012,01,25,04,47,0.30
2012,01,25,04,48,2.20
2012,01,25,04,49,6.10
2012,01,25,04,50,10.30
2012,01,25,04,51,5.00
2012,01,25,04,52,4.30
2012,01,25,04,53,5.00
2012,01,25,04,54,2.40
2012,01,25,04,55,2.20
2012,01,25,04,56,3.40
2012,01,25,04,57,4.70
2012,01,25,04,58,4.20
2012,01,25,04,59,0.10
2012,01,25,05,00,3.40
2012,01,25,05,01,6.10
2012,01,25,05,02,5.50
2012,01,25,05,03,7.30
2012,01,25,05,04,5.30
2012,01,25,05,05,2.70
2012,01,25,05,06,5.60
2012,01,25,05,07,4.60
2012,01,25,05,08,8.90
2012,01,25,05,09,7.20
2012,01,25,05,10,7.50
2012,01,25,05,11,3.70
2012,01,25,05,12,4.70
2012,01,25,05,13,1.50
2012,01,25,05,14,10.00
2012,01,25,05,15,8.70
2012,01,25,05,16,3.30
2012,01,25,05,17,1.30
2012,01,25,05,18,0.60
2012,01,25,05,19,3.70
2012,01,25,05,20,2.60
2012,01,25,05,21,2.30
2012,01,25,05,22,7.50
2012,01,25,05,23,3.30
2012,01,25,05,24,2.50
2012,01,25,05,25,0.60
2012,01,25,05,26,0.10
2012,01,25,05,27,7.90
2012,01,25,05,28,6.60
2012,01,25,05,29,3.50
2012,01,25,05,30,7.70
2012,01,25,05,31,3.50
2012,01,25,05,32,0.30
2012,01,25,05,33,5.10
2012,01,25,05,34,2.10
2012,01,25,05,35,3.50
2012,01,25,05,36,3.50
2012,01,25,05,37,1.20
2012,01,25,05,38,0.00
2012,01,25,05,39,0.60
2012,01,25,05,40,0.00
2012,01,25,05,41,2.20
2012,01,25,05,42,1.90
2012,01,25,05,43,1.00
2012,01,25,05,44,1.50
2012,01,25,05,45,3.00
2012,01,25,05,46,0.30
2012,01,25,05,47,0.00
2012,01,25,05,48,0.30
2012,01,25,05,49,0.90
2012,01,25,05,50,0.20
2012,01,25,05,51,1.90
2012,01,25,05,52,1.10
2012,01,25,05,53,0.00
2012,01,25,05,54,0.00
2012,01,25,05,55,0.90
2012,01,25,05,56,1.80
2012,01,25,05,57,0.20
2012,01,25,05,58,0.20
2012,01,25,05,59,1.20
2012,01,25,06,00,3.70
2012,01,25,06,01,1.50
2012,01,25,06,02,2.70
2012,01,25,06,03,4.60
2012,01,25,06,04,3.60
2012,01,25,06,05,1.90
2012,01,25,06,06,0.80
2012,01,25,06,07,0.60
2012,01,25,06,08,0.50
2012,01,25,06,09,2.80
2012,01,25,06,10,0.00
2012,01,25,06,11,2.60
2012,01,25,06,12,4.60
2012,01,25,06,13,3.80
2012,01,25,06,14,3.10
2012,01,25,06,15,10.10
2012,01,25,06,16,5.50
2012,01,25,06,17,4.10
2012,01,25,06,18,4.30
2012,01,25,06,19,8.60
2012,01,25,06,20,6.80
2012,01,25,06,21,4.10
2012,01,25,06,22,3.30
2012,01,25,06,23,0.40
2012,01,25,06,24,0.00
2012,01,25,06,25,2.00
2012,01,25,06,26,4.80
2012,01,25,06,27,3.20
2012,01,25,06,28,3.20
2012,01,25,06,29,4.40
2012,01,25,06,30,3.50
2012,01,25,06,31,0.10
2012,01,25,06,32,0.80
2012,01,25,06,33,0.00
2012,01,25,06,34,0.20
2012,01,25,06,35,0.60
2012,01,25,06,36,0.50
2012,01,25,06,37,4.10
2012,01,25,06,38,3.30
2012,01,25,06,39,12.70
2012,01,25,06,40,12.50
2012,01,25,06,41,4.70
2012,01,25,06,42,1.60
2012,01,25,06,43,5.90
2012,01,25,06,44,2.70
2012,01,25,06,45,1.20
2012,01,25,06,46,0.00
2012,01,25,06,47,1.70
2012,01,25,06,48,5.80
2012,01,25,06,49,6.00
2012,01,25,06,50,4.70
2012,01,25,06,51,6.00
2012,01,25,06,52,5.50
2012,01,25,06,53,5.10
2012,01,25,06,54,4.00
2012,01,25,06,55,4.00
2012,01,25,06,56,6.30
2012,01,25,06,57,4.10
2012,01,25,06,58,2.50
2012,01,25,06,59,4.20
2012,01,25,07,00,3.60
2012,01,25,07,01,1.00
2012,01,25,07,02,0.50
2012,01,25,07,03,1.20
2012,01,25,07,04,0.90
2012,01,25,07,05,0.30
2012,01,25,07,06,0.00
2012,01,25,07,07,0.00
2012,01,25,07,08,0.00
2012,01,25,07,09,0.00
2012,01,25,07,10,0.00
2012,01,25,07,11,0.00
2012,01,25,07,12,0.00
2012,01,25,07,13,0.00
2012,01,25,07,14,0.00
2012,01,25,07,15,0.00
2012,01,25,07,16,0.00
2012,01,25,07,17,0.00
2012,01,25,07,18,0.00
2012,01,25,07,19,0.00
2012,01,25,07,20,0.00
2012,01,25,07,21,0.00
2012,01,25,07,22,0.00
2012,01,25,07,23,0.00
2012,01,25,07,24,0.00
2012,01,25,07,25,0.00
2012,01,25,07,26,0.00
2012,01,25,07,27,0.00
2012,01,25,07,28,0.00
2012,01,25,07,29,0.00
2012,01,25,07,30,0.00
2012,01,25,07,31,0.00
2012,01,25,07,32,0.00
2012,01,25,07,33,0.00
2012,01,25,07,34,0.00
2012,01,25,07,35,0.00
2012,01,25,07,36,0.00
2012,01,25,07,37,0.00
2012,01,25,07,38,0.00
2012,01,25,07,39,0.00
2012,01,25,07,40,0.00
2012,01,25,07,41,0.00
2012,01,25,07,42,0.00
2012,01,25,07,43,0.00
2012,01,25,07,44,0.00
2012,01,25,07,45,0.50
2012,01,25,07,46,1.10
2012,01,25,07,47,0.00
2012,01,25,07,48,0.00
2012,01,25,07,49,0.40
2012,01,25,07,50,2.40
2012,01,25,07,51,0.60
2012,01,25,07,52,0.00
2012,01,25,07,53,0.00
2012,01,25,07,54,0.00
2012,01,25,07,55,0.00
2012,01,25,07,56,0.00
2012,01,25,07,57,0.10
2012,01,25,07,58,0.00
2012,01,25,07,59,0.00
2012,01,25,08,00,0.00
2012,01,25,08,01,0.00
2012,01,25,08,02,0.00
2012,01,25,08,03,0.10
2012,01,25,08,04,0.10
2012,01,25,08,05,0.10
2012,01,25,08,06,1.00
2012,01,25,08,07,3.50
2012,01,25,08,08,3.20
2012,01,25,08,09,0.80
2012,01,25,08,10,3.20
2012,01,25,08,11,6.40
2012,01,25,08,12,3.00
2012,01,25,08,13,0.00
2012,01,25,08,14,1.40
2012,01,25,08,15,0.10
2012,01,25,08,16,0.00
2012,01,25,08,17,0.70
2012,01,25,08,18,3.80
2012,01,25,08,19,0.00
2012,01,25,08,20,0.00
2012,01,25,08,21,0.00
2012,01,25,08,22,0.30
2012,01,25,08,23,0.20
2012,01,25,08,24,0.00
2012,01,25,08,25,0.00
2012,01,25,08,26,0.00
2012,01,25,08,27,0.00
2012,01,25,08,28,1.80
2012,01,25,08,29,4.30
2012,01,25,08,30,2.90
2012,01,25,08,31,5.00
2012,01,25,08,32,4.50
2012,01,25,08,33,5.00
2012,01,25,08,34,6.00
2012,01,25,08,35,4.00
2012,01,25,08,36,6.10
2012,01,25,08,37,7.10
2012,01,25,08,38,2.80
2012,01,25,08,39,5.10
2012,01,25,08,40,3.90
2012,01,25,08,41,9.50
2012,01,25,08,42,9.70
2012,01,25,08,43,5.40
2012,01,25,08,44,5.60
2012,01,25,08,45,8.40
2012,01,25,08,46,6.10
2012,01,25,08,47,7.30
2012,01,25,08,48,10.30
2012,01,25,08,49,8.10
2012,01,25,08,50,6.70
2012,01,25,08,51,6.00
2012,01,25,08,52,6.90
2012,01,25,08,53,6.60
2012,01,25,08,54,5.60
2012,01,25,08,55,5.30
2012,01,25,08,56,5.40
2012,01,25,08,57,6.30
2012,01,25,08,58,6.80
2012,01,25,08,59,6.40
2012,01,25,09,00,10.60
2012,01,25,09,01,8.00
2012,01,25,09,02,7.60
2012,01,25,09,03,7.20
2012,01,25,09,04,5.10
2012,01,25,09,05,5.60
2012,01,25,09,06,3.00
2012,01,25,09,07,3.90
2012,01,25,09,08,1.80
2012,01,25,09,09,3.90
2012,01,25,09,10,2.80
2012,01,25,09,11,3.60
2012,01,25,09,12,3.50
2012,01,25,09,13,2.30
2012,01,25,09,14,5.00
2012,01,25,09,15,3.80
2012,01,25,09,16,2.80
2012,01,25,09,17,3.30
2012,01,25,09,18,2.50
2012,01,25,09,19,1.40
2012,01,25,09,20,1.50
2012,01,25,09,21,1.00
2012,01,25,09,22,0.00
2012,01,25,09,23,0.90
2012,01,25,09,24,2.50
2012,01,25,09,25,1.90
2012,01,25,09,26,3.00
2012,01,25,09,27,4.70
2012,01,25,09,28,7.60
2012,01,25,09,29,2.40
2012,01,25,09,30,4.10
2012,01,25,09,31,3.30
2012,01,25,09,32,3.20
2012,01,25,09,33,6.60
2012,01,25,09,34,7.50
2012,01,25,09,35,4.60
2012,01,25,09,36,2.50
2012,01,25,09,37,2.80
2012,01,25,09,38,1.80
2012,01,25,09,39,2.70
2012,01,25,09,40,1.00
2012,01,25,09,41,2.10
2012,01,25,09,42,1.00
2012,01,25,09,43,7.00
2012,01,25,09,44,4.80
2012,01,25,09,45,2.40
2012,01,25,09,46,6.10
2012,01,25,09,47,3.90
2012,01,25,09,48,4.60
2012,01,25,09,49,5.80
2012,01,25,09,50,7.70
2012,01,25,09,51,6.20
2012,01,25,09,52,5.30
2012,01,25,09,53,3.70
2012,01,25,09,54,3.10
2012,01,25,09,55,1.20
2012,01,25,09,56,3.50
2012,01,25,09,57,2.60
2012,01,25,09,58,4.20
2012,01,25,09,59,5.40
2012,01,25,10,00,4.10
2012,01,25,10,01,1.00
2012,01,25,10,02,3.80
2012,01,25,10,03,3.90
2012,01,25,10,04,0.60
2012,01,25,10,05,0.30
2012,01,25,10,06,1.40
2012,01,25,10,07,4.10
2012,01,25,10,08,1.70
2012,01,25,10,09,0.10
2012,01,25,10,10,0.50
2012,01,25,10,11,1.90
2012,01,25,10,12,0.10
2012,01,25,10,13,1.00
2012,01,25,10,14,3.90
2012,01,25,10,15,7.20
2012,01,25,10,16,7.30
2012,01,25,10,17,6.40
2012,01,25,10,18,4.40
2012,01,25,10,19,6.50
2012,01,25,10,20,5.70
2012,01,25,10,21,2.90
2012,01,25,10,22,4.50
2012,01,25,10,23,5.20
2012,01,25,10,24,6.40
2012,01,25,10,25,1.30
2012,01,25,10,26,4.70
2012,01,25,10,27,3.30
2012,01,25,10,28,5.00
2012,01,25,10,29,9.70
2012,01,25,10,30,10.10
2012,01,25,10,31,9.20
2012,01,25,10,32,11.70
2012,01,25,10,33,5.00
2012,01,25,10,34,5.70
2012,01,25,10,35,2.90
2012,01,25,10,36,2.10
2012,01,25,10,37,0.80
2012,01,25,10,38,6.30
2012,01,25,10,39,3.40
2012,01,25,10,40,1.80
2012,01,25,10,41,0.00
2012,01,25,10,42,1.90
2012,01,25,10,43,2.60
2012,01,25,10,44,3.50
2012,01,25,10,45,4.70
2012,01,25,10,46,4.50
2012,01,25,10,47,3.80
2012,01,25,10,48,1.00
2012,01,25,10,49,2.20
2012,01,25,10,50,5.00
2012,01,25,10,51,3.90
2012,01,25,10,52,7.60
2012,01,25,10,53,3.90
2012,01,25,10,54,9.20
2012,01,25,10,55,5.70
2012,01,25,10,56,4.80
2012,01,25,10,57,5.80
2012,01,25,10,58,5.10
2012,01,25,10,59,3.40
2012,01,25,11,00,5.50
2012,01,25,11,01,3.40
2012,01,25,11,02,3.90
2012,01,25,11,03,2.80
2012,01,25,11,04,1.40
2012,01,25,11,05,3.70
2012,01,25,11,06,5.70
2012,01,25,11,07,8.90
2012,01,25,11,08,14.40
2012,01,25,11,09,6.70
2012,01,25,11,10,3.10
2012,01,25,11,11,1.90
2012,01,25,11,12,6.20
2012,01,25,11,13,6.00
2012,01,25,11,14,3.70
2012,01,25,11,15,7.70
2012,01,25,11,16,16.40
2012,01,25,11,17,10.10
2012,01,25,11,18,14.60
2012,01,25,11,19,7.90
2012,01,25,11,20,8.70
2012,01,25,11,21,10.30
2012,01,25,11,22,8.50
2012,01,25,11,23,12.80
2012,01,25,11,24,8.40
2012,01,25,11,25,10.90
2012,01,25,11,26,9.30
2012,01,25,11,27,0.90
2012,01,25,11,28,6.40
2012,01,25,11,29,7.00
2012,01,25,11,30,7.00
2012,01,25,11,31,6.20
2012,01,25,11,32,5.90
2012,01,25,11,33,15.10
2012,01,25,11,34,7.10
2012,01,25,11,35,3.10
2012,01,25,11,36,9.00
2012,01,25,11,37,6.00
2012,01,25,11,38,4.70
2012,01,25,11,39,8.20
2012,01,25,11,40,11.10
2012,01,25,11,41,5.10
2012,01,25,11,42,9.70
2012,01,25,11,43,5.10
2012,01,25,11,44,8.00
2012,01,25,11,45,7.60
2012,01,25,11,46,5.20
2012,01,25,11,47,6.80
2012,01,25,11,48,7.50
2012,01,25,11,49,8.10
2012,01,25,11,50,14.20
2012,01,25,11,51,7.20
2012,01,25,11,52,8.80
2012,01,25,11,53,4.80
2012,01,25,11,54,15.60
2012,01,25,11,55,9.80
2012,01,25,11,56,12.30
2012,01,25,11,57,7.60
2012,01,25,11,58,6.00
2012,01,25,11,59,10.70
2012,01,25,12,00,9.00
2012,01,25,12,01,8.70
2012,01,25,12,02,5.70
2012,01,25,12,03,6.40
2012,01,25,12,04,4.80
2012,01,25,12,05,4.10
2012,01,25,12,06,6.40
2012,01,25,12,07,10.40
2012,01,25,12,08,10.20
2012,01,25,12,09,7.30
2012,01,25,12,10,9.90
2012,01,25,12,11,8.00
2012,01,25,12,12,8.50
2012,01,25,12,13,12.60
2012,01,25,12,14,13.40
2012,01,25,12,15,18.00
2012,01,25,12,16,11.00
2012,01,25,12,17,6.30
2012,01,25,12,18,7.10
2012,01,25,12,19,12.00
2012,01,25,12,20,19.10
2012,01,25,12,21,15.10
2012,01,25,12,22,4.20
2012,01,25,12,23,3.30
2012,01,25,12,24,5.50
2012,01,25,12,25,9.40
2012,01,25,12,26,16.00
2012,01,25,12,27,7.20
2012,01,25,12,28,16.60
2012,01,25,12,29,9.50
2012,01,25,12,30,7.20
2012,01,25,12,31,6.70
2012,01,25,12,32,8.20
2012,01,25,12,33,11.10
2012,01,25,12,34,10.20
2012,01,25,12,35,5.20
2012,01,25,12,36,8.30
2012,01,25,12,37,5.30
2012,01,25,12,38,3.10
2012,01,25,12,39,6.60
2012,01,25,12,40,3.80
2012,01,25,12,41,3.30
2012,01,25,12,42,5.10
2012,01,25,12,43,4.10
2012,01,25,12,44,7.10
2012,01,25,12,45,5.10
2012,01,25,12,46,8.90
2012,01,25,12,47,9.10
2012,01,25,12,48,9.70
2012,01,25,12,49,12.10
2012,01,25,12,50,6.50
2012,01,25,12,51,2.80
2012,01,25,12,52,6.80
2012,01,25,12,53,6.50
2012,01,25,12,54,6.50
2012,01,25,12,55,12.10
2012,01,25,12,56,7.60
2012,01,25,12,57,11.80
2012,01,25,12,58,9.00
2012,01,25,12,59,7.40
2012,01,25,13,00,7.20
2012,01,25,13,01,3.70
2012,01,25,13,02,3.50
2012,01,25,13,03,8.20
2012,01,25,13,04,11.80
2012,01,25,13,05,6.60
2012,01,25,13,06,13.80
2012,01,25,13,07,9.70
2012,01,25,13,08,3.10
2012,01,25,13,09,2.60
2012,01,25,13,10,5.60
2012,01,25,13,11,3.90
2012,01,25,13,12,2.30
2012,01,25,13,13,2.20
2012,01,25,13,14,2.70
2012,01,25,13,15,0.10
2012,01,25,13,16,1.50
2012,01,25,13,17,2.90
2012,01,25,13,18,1.90
2012,01,25,13,19,6.20
2012,01,25,13,20,7.50
2012,01,25,13,21,2.20
2012,01,25,13,22,2.60
2012,01,25,13,23,4.60
2012,01,25,13,24,14.30
2012,01,25,13,25,6.70
2012,01,25,13,26,12.70
2012,01,25,13,27,5.80
2012,01,25,13,28,4.80
2012,01,25,13,29,4.00
2012,01,25,13,30,4.90
2012,01,25,13,31,6.30
2012,01,25,13,32,0.80
2012,01,25,13,33,6.90
2012,01,25,13,34,10.00
2012,01,25,13,35,10.50
2012,01,25,13,36,8.80
2012,01,25,13,37,5.90
2012,01,25,13,38,4.90
2012,01,25,13,39,3.10
2012,01,25,13,40,4.70
2012,01,25,13,41,12.80
2012,01,25,13,42,3.70
2012,01,25,13,43,12.40
2012,01,25,13,44,11.10
2012,01,25,13,45,10.00
2012,01,25,13,46,6.50
2012,01,25,13,47,9.10
2012,01,25,13,48,11.30
2012,01,25,13,49,7.20
2012,01,25,13,50,1.80
2012,01,25,13,51,10.60
2012,01,25,13,52,3.40
2012,01,25,13,53,7.40
2012,01,25,13,54,7.80
2012,01,25,13,55,9.50
2012,01,25,13,56,9.90
2012,01,25,13,57,5.80
2012,01,25,13,58,12.20
2012,01,25,13,59,4.90
2012,01,25,14,00,9.80
2012,01,25,14,01,6.00
2012,01,25,14,02,6.00
2012,01,25,14,03,5.70
2012,01,25,14,04,8.10
2012,01,25,14,05,5.70
2012,01,25,14,06,9.90
2012,01,25,14,07,14.20
2012,01,25,14,08,11.80
2012,01,25,14,09,6.50
2012,01,25,14,10,10.90
2012,01,25,14,11,4.40
2012,01,25,14,12,7.60
2012,01,25,14,13,13.40
2012,01,25,14,14,9.30
2012,01,25,14,15,3.00
2012,01,25,14,16,2.60
2012,01,25,14,17,11.10
2012,01,25,14,18,10.90
2012,01,25,14,19,9.80
2012,01,25,14,20,10.90
2012,01,25,14,21,15.20
2012,01,25,14,22,11.30
2012,01,25,14,23,5.90
2012,01,25,14,24,2.50
2012,01,25,14,25,3.50
2012,01,25,14,26,5.90
2012,01,25,14,27,4.20
2012,01,25,14,28,18.10
2012,01,25,14,29,22.10
2012,01,25,14,30,5.30
2012,01,25,14,31,7.80
2012,01,25,14,32,6.90
2012,01,25,14,33,8.90
2012,01,25,14,34,8.90
2012,01,25,14,35,18.00
2012,01,25,14,36,18.00
2012,01,25,14,37,8.40
2012,01,25,14,38,12.30
2012,01,25,14,39,12.50
2012,01,25,14,40,2.70
2012,01,25,14,41,9.20
2012,01,25,14,42,7.20
2012,01,25,14,43,12.30
2012,01,25,14,44,16.70
2012,01,25,14,45,22.50
2012,01,25,14,46,9.20
2012,01,25,14,47,14.50
2012,01,25,14,48,9.80
2012,01,25,14,49,11.30
2012,01,25,14,50,8.50
2012,01,25,14,51,13.40
2012,01,25,14,52,19.20
2012,01,25,14,53,13.30
2012,01,25,14,54,10.80
2012,01,25,14,55,11.90
2012,01,25,14,56,8.10
2012,01,25,14,57,13.50
2012,01,25,14,58,17.30
2012,01,25,14,59,6.40
2012,01,25,15,00,13.70
2012,01,25,15,01,10.50
2012,01,25,15,02,7.50
2012,01,25,15,03,10.50
2012,01,25,15,04,5.60
2012,01,25,15,05,10.20
2012,01,25,15,06,12.20
2012,01,25,15,07,10.20
2012,01,25,15,08,19.10
2012,01,25,15,09,12.10
2012,01,25,15,10,8.40
2012,01,25,15,11,9.80
2012,01,25,15,12,5.00
2012,01,25,15,13,2.80
2012,01,25,15,14,0.40
2012,01,25,15,15,0.30
2012,01,25,15,16,2.30
2012,01,25,15,17,5.60
2012,01,25,15,18,4.90
2012,01,25,15,19,14.20
2012,01,25,15,20,13.70
2012,01,25,15,21,7.30
2012,01,25,15,22,8.10
2012,01,25,15,23,8.00
2012,01,25,15,24,8.00
2012,01,25,15,25,10.70
2012,01,25,15,26,9.30
2012,01,25,15,27,8.20
2012,01,25,15,28,11.00
2012,01,25,15,29,9.10
2012,01,25,15,30,15.50
2012,01,25,15,31,23.00
2012,01,25,15,32,19.50
2012,01,25,15,33,9.00
2012,01,25,15,34,8.00
2012,01,25,15,35,8.50
2012,01,25,15,36,10.60
2012,01,25,15,37,9.10
2012,01,25,15,38,15.90
2012,01,25,15,39,3.10
2012,01,25,15,40,4.80
2012,01,25,15,41,5.60
2012,01,25,15,42,4.40
2012,01,25,15,43,3.50
2012,01,25,15,44,10.50
2012,01,25,15,45,5.30
2012,01,25,15,46,3.10
2012,01,25,15,47,2.70
2012,01,25,15,48,1.50
2012,01,25,15,49,3.60
2012,01,25,15,50,12.70
2012,01,25,15,51,11.80
2012,01,25,15,52,5.70
2012,01,25,15,53,1.90
2012,01,25,15,54,4.80
2012,01,25,15,55,8.80
2012,01,25,15,56,6.90
2012,01,25,15,57,6.10
2012,01,25,15,58,3.40
2012,01,25,15,59,7.10
2012,01,25,16,00,14.90
2012,01,25,16,01,11.20
2012,01,25,16,02,10.30
2012,01,25,16,03,4.30
2012,01,25,16,04,3.00
2012,01,25,16,05,1.80
2012,01,25,16,06,2.20
2012,01,25,16,07,0.90
2012,01,25,16,08,2.40
2012,01,25,16,09,5.80
2012,01,25,16,10,3.90
2012,01,25,16,11,12.20
2012,01,25,16,12,3.00
2012,01,25,16,13,9.60
2012,01,25,16,14,6.40
2012,01,25,16,15,7.50
2012,01,25,16,16,9.50
2012,01,25,16,17,6.40
2012,01,25,16,18,3.90
2012,01,25,16,19,8.50
2012,01,25,16,20,12.50
2012,01,25,16,21,8.40
2012,01,25,16,22,7.80
2012,01,25,16,23,6.40
2012,01,25,16,24,1.20
2012,01,25,16,25,6.30
2012,01,25,16,26,13.90
2012,01,25,16,27,4.60
2012,01,25,16,28,3.90
2012,01,25,16,29,2.30
2012,01,25,16,30,0.10
2012,01,25,16,31,0.20
2012,01,25,16,32,0.60
2012,01,25,16,33,1.70
2012,01,25,16,34,4.30
2012,01,25,16,35,2.90
2012,01,25,16,36,0.60
2012,01,25,16,37,2.70
2012,01,25,16,38,1.10
2012,01,25,16,39,2.30
2012,01,25,16,40,2.50
2012,01,25,16,41,2.30
2012,01,25,16,42,0.10
2012,01,25,16,43,0.10
2012,01,25,16,44,0.10
2012,01,25,16,45,1.00
2012,01,25,16,46,1.70
2012,01,25,16,47,2.10
2012,01,25,16,48,1.90
2012,01,25,16,49,4.90
2012,01,25,16,50,2.30
2012,01,25,16,51,1.40
2012,01,25,16,52,1.40
2012,01,25,16,53,0.00
2012,01,25,16,54,0.00
2012,01,25,16,55,0.30
2012,01,25,16,56,1.70
2012,01,25,16,57,2.20
2012,01,25,16,58,2.40
2012,01,25,16,59,0.60
2012,01,25,17,00,0.10
2012,01,25,17,01,2.00
2012,01,25,17,02,0.70
2012,01,25,17,03,1.00
2012,01,25,17,04,0.00
2012,01,25,17,05,0.10
2012,01,25,17,06,0.10
2012,01,25,17,07,0.10
2012,01,25,17,08,0.10
2012,01,25,17,09,0.00
2012,01,25,17,10,0.00
2012,01,25,17,11,0.10
2012,01,25,17,12,0.50
2012,01,25,17,13,0.00
2012,01,25,17,14,2.00
2012,01,25,17,15,0.50
2012,01,25,17,16,2.90
2012,01,25,17,17,1.90
2012,01,25,17,18,0.50
2012,01,25,17,19,0.10
2012,01,25,17,20,0.00
2012,01,25,17,21,0.00
2012,01,25,17,22,0.70
2012,01,25,17,23,2.20
2012,01,25,17,24,0.80
2012,01,25,17,25,0.00
2012,01,25,17,26,1.40
2012,01,25,17,27,1.10
2012,01,25,17,28,2.90
2012,01,25,17,29,2.00
2012,01,25,17,30,0.20
2012,01,25,17,31,3.60
2012,01,25,17,32,4.20
2012,01,25,17,33,4.20
2012,01,25,17,34,2.80
2012,01,25,17,35,2.60
2012,01,25,17,36,1.90
2012,01,25,17,37,0.40
2012,01,25,17,38,1.40
2012,01,25,17,39,1.40
2012,01,25,17,40,2.50
2012,01,25,17,41,3.00
2012,01,25,17,42,2.50
2012,01,25,17,43,3.80
2012,01,25,17,44,3.00
2012,01,25,17,45,2.30
2012,01,25,17,46,1.50
2012,01,25,17,47,1.10
2012,01,25,17,48,3.90
2012,01,25,17,49,5.30
2012,01,25,17,50,6.10
2012,01,25,17,51,3.50
2012,01,25,17,52,1.80
2012,01,25,17,53,1.50
2012,01,25,17,54,0.10